Location: Boiro
(42.6475°N, 8.8834°W)
Time: 15:58:44
(UTC+01:00)

Vanguard 3 - Pass Details

Date: 06 December 2021
Orbit: 508 x 3260 km, 33.3° (Epoch: 22 January)

Event Time Altitude Azimuth Distance (km) Brightness Sun altitude
Rises 02:39:58 0° 208° (SSW) 6,295 - -64.7°
Reaches altitude 10° 02:44:26 10° 199° (SSW) 5,595 - -64.1°
Maximum altitude 02:59:31 34° 143° (SE) 4,484 - -62.1°
Exits shadow 03:03:06 32° 126° (SE) 4,603 10.8 -61.6°
Drops below altitude 10° 03:15:25 10° 89° (E) 5,952 11.8 -59.7°
Sets 03:20:18 0° 81° (E) 6,735 12.3 -59.0°
